[[{"header":{"parameterUnit":"m.s-1","parameterCategory":1,"la1":30.2991,"la2":30.254,"lo1":-89.0895,"lo2":-89.0444,"dy":0.0017,"dx":0.0017,"nx":28,"ny":28,"refTime":"2023-10-22T03:00:00:Z","depth":0,"parameterNumber":2,"parameterNumberName":"U-component_of_WINDS"},"data":[0,0,0,0,0,0,0,0,0,0,0,0,0,0,0,0,0,0,0,0,0,0,0,0,0,0,0,0,0,0,0,0,0,0,0,0,0,0,0,0,0,0,0,0,0,0,0,0,0,0,0,0,0,0,0,0,0,0,0.4049,0.405,0,0.4157,0.4158,0.416,0.4173,0.4171,0.417,0.4169,0.4283,0.4286,0.429,0,0,0,0,0,0,0,0,0,0,0,0,0,0.3856,0.386,0.4049,0.405,0.4052,0.4157,0.4158,0.416,0.4173,0.4171,0.417,0.4169,0.4281,0.4286,0.4291,0,0,0,0,0,0,0,0,0,0,0,0,0,0.395,0.3861,0.4049,0.4071,0.4074,0.4157,0.4158,0.416,0.4173,0.4171,0.417,0.4168,0.428,0.4286,0.4291,0.4361,0,0,0.431,0.4312,0,0,0,0,0,0,0,0,0.3944,0.3957,0.4066,0.4069,0.4073,0.415,0.4132,0.4228,0.4173,0.4135,0.4169,0.4167,0.424,0.4249,0.4273,0.4366,0.4371,0.431,0.4314,0.4317,0.4318,0,0,0,0,0,0,0,0.3938,0.3952,0.4092,0.4068,0.4072,0.4076,0.4088,0.415,0.4195,0.4139,0.414,0.4152,0.4241,0.4267,0.4276,0.4373,0.431,0.4316,0.4319,0.4322,0.4529,0.4531,0,0,0,0,0,0,0.3927,0.3947,0.4088,0.4095,0.4003,0.4081,0.4094,0.4127,0.4195,0.4203,0.4153,0.4152,0.4258,0.4269,0.428,0.4366,0.4317,0.4322,0.4326,0.4527,0.4529,0.4531,0,0,0,0,0,0,0.3923,0.394,0.4084,0.4021,0.404,0.4086,0.4123,0.413,0.4155,0.4206,0.4214,0.4171,0.4257,0.4271,0.434,0.437,0.4325,0.433,0.4525,0.4528,0.453,0.4539,0,0,0,0,0,0,0.3917,0.3938,0.3964,0.4022,0.4043,0.4142,0.4125,0.4133,0.4165,0.4165,0.4225,0.4233,0.4257,0.4331,0.4346,0.4378,0.4335,0.4522,0.4526,0.4529,0.4536,0.4541,0.4546,0,0,0,0,0,0.391,0.3963,0.3965,0.3982,0.4077,0.4144,0.4156,0.4181,0.4168,0.4195,0.4227,0.4231,0.4364,0.4338,0.4355,0.4389,0.4521,0.4525,0.4529,0.4534,0.454,0.4546,0,0,0,0,0,0,0.3908,0.3971,0.3974,0.4047,0.409,0.4146,0.4181,0.4188,0.4236,0.4234,0.4264,0.4277,0.4345,0.4374,0.4344,0.446,0.4441,0.4449,0.4439,0.4446,0.445,0.4443,0.434,0,0,0,0,0,0.3916,0.3964,0.4017,0.4075,0.4097,0.4135,0.4165,0.4181,0.4227,0.4246,0.4283,0.4329,0.4381,0.4415,0.4465,0.454,0.4554,0.4571,0.4576,0.458,0.4587,0.4629,0.4638,0.4545,0.4545,0.4545,0,0,0.3933,0.3973,0.4002,0.4076,0.4111,0.4162,0.415,0.4204,0.4242,0.4254,0.4322,0.4351,0.4404,0.4476,0.451,0.4502,0.4615,0.4585,0.4588,0.4593,0.4635,0.4643,0.4651,0.4548,0.4548,0.4547,0,0,0.3989,0.4024,0.4077,0.4112,0.4166,0.4191,0.4204,0.4259,0.4279,0.4347,0.4357,0.4403,0.4492,0.4529,0.456,0.4631,0.4637,0.4646,0.4673,0.4714,0.4722,0.4728,0.4755,0.4764,0.4653,0.4653,0.4653,0,0.4004,0.4079,0.4104,0.4157,0.419,0.4202,0.4257,0.429,0.4358,0.438,0.437,0.4482,0.4519,0.46,0.4618,0.4642,0.4658,0.464,0.4718,0.4725,0.4732,0.4757,0.4767,0.4654,0.4654,0.4654,0.4654,0,0.4095,0.4147,0.4184,0.4248,0.4285,0.4339,0.4372,0.4407,0.4419,0.4445,0.4515,0.4559,0.4619,0.4639,0.4652,0.4723,0.4717,0.4712,0.4694,0.4741,0.4766,0.4776,0.4655,0.4655,0.4655,0.4654,0,0,0.4154,0.423,0.4244,0.4273,0.4333,0.4374,0.4429,0.4487,0.4516,0.4562,0.461,0.4685,0.4681,0.4716,0.4733,0.4768,0.4823,0.476,0.4761,0.4771,0.4905,0.4909,0.492,0.4827,0.4829,0.483,0.4901,0,0.4218,0.4315,0.4338,0.4422,0.4471,0.4483,0.4531,0.4573,0.46,0.4646,0.4675,0.4728,0.4718,0.474,0.4776,0.4809,0.485,0.4804,0.4872,0.4874,0.4859,0.4932,0.4936,0.5001,0.4911,0.4912,0.4913,0,0.4306,0.4353,0.4441,0.4495,0.4517,0.4559,0.4614,0.4658,0.4707,0.4723,0.4762,0.4775,0.4834,0.4812,0.4894,0.4861,0.4891,0.4911,0.4914,0.4922,0.4897,0.4944,0.5023,0.5033,0.4929,0.4927,0.4926,0,0.4341,0.4427,0.4491,0.4516,0.458,0.4609,0.4638,0.4684,0.4718,0.4766,0.4789,0.4844,0.4874,0.4917,0.4945,0.4926,0.5025,0.5005,0.5041,0.5041,0.5062,0.5061,0.5148,0.5079,0.5079,0.5079,0.5079,0,0.4411,0.4464,0.4507,0.4547,0.4608,0.4635,0.4694,0.4723,0.4765,0.481,0.4824,0.4867,0.4902,0.495,0.4972,0.5037,0.505,0.5066,0.5072,0.5066,0.5064,0.5086,0.5083,0.5082,0.5081,0.508,0.508,0,0.4461,0.4491,0.4562,0.4617,0.4632,0.4674,0.4722,0.4761,0.4787,0.4845,0.4861,0.4902,0.496,0.4992,0.5064,0.5079,0.5151,0.5154,0.5135,0.5138,0.5172,0.5169,0.5278,0.5294,0.5213,0.5214,0.5215,0,0.4503,0.4545,0.4604,0.4635,0.4664,0.4714,0.4748,0.4777,0.4812,0.487,0.4903,0.4961,0.5009,0.51,0.5137,0.5193,0.5197,0.5232,0.5206,0.5199,0.5199,0.5197,0.5202,0.5237,0.5237,0.5238,0.5238,0,0.4577,0.459,0.4638,0.4692,0.4732,0.4776,0.482,0.4845,0.4881,0.492,0.4978,0.5015,0.5088,0.5146,0.5205,0.5235,0.5243,0.5246,0.5258,0.5252,0.5239,0.5248,0.5148,0.5244,0.5243,0.5243,0.5242,0.5242,0.4625,0.4663,0.471,0.4764,0.48,0.484,0.488,0.4911,0.496,0.5021,0.5035,0.5097,0.5145,0.5224,0.5256,0.5305,0.5299,0.5315,0.532,0.5324,0.5325,0.5231,0.5316,0.5316,0.5316,0.5316,0.5316,0,0.47,0.4731,0.478,0.484,0.4883,0.4885,0.4934,0.497,0.5024,0.5067,0.5114,0.5181,0.5238,0.5279,0.5337,0.5368,0.5374,0.5383,0.5381,0.5388,0.5327,0.5312,0.5377,0.5377,0.5377,0.5377,0.5377,0.5377,0.4743,0.4808,0.4827,0.4909,0.494,0.5,0.5028,0.5066,0.5101,0.5175,0.5222,0.5248,0.5292,0.5352,0.5404,0.5415,0.5436,0.5445,0.5456,0.5399,0.5392,0.5386,0.5372,0.5449,0.5449,0.5513,0.5514,0.5514]},{"header":{"parameterUnit":"m.s-1","parameterCategory":1,"la1":30.2991,"la2":30.254,"lo1":-89.0895,"lo2":-89.0444,"dy":0.0017,"dx":0.0017,"nx":28,"ny":28,"refTime":"2023-10-22T03:00:00:Z","depth":0,"parameterNumber":3,"parameterNumberName":"V-component_of_WINDS"},"data":[0,0,0,0,0,0,0,0,0,0,0,0,0,0,0,0,0,0,0,0,0,0,0,0,0,0,0,0,0,0,0,0,0,0,0,0,0,0,0,0,0,0,0,0,0,0,0,0,0,0,0,0,0,0,0,0,0,0,1.5284,1.5283,0,1.5245,1.5244,1.5244,1.5185,1.5184,1.5183,1.5182,1.5141,1.5141,1.5141,0,0,0,0,0,0,0,0,0,0,0,0,0,1.5308,1.5308,1.5284,1.5283,1.5283,1.5245,1.5244,1.5244,1.5185,1.5184,1.5183,1.5181,1.5141,1.5141,1.5141,0,0,0,0,0,0,0,0,0,0,0,0,0,1.5286,1.5308,1.5284,1.5249,1.5246,1.5245,1.5244,1.5244,1.5185,1.5184,1.5182,1.5181,1.5141,1.5141,1.5141,1.5171,0,0,1.514,1.514,0,0,0,0,0,0,0,0,1.5287,1.5285,1.5255,1.5251,1.5248,1.5218,1.5238,1.5219,1.5186,1.5208,1.5182,1.518,1.5168,1.5165,1.5161,1.5169,1.5167,1.514,1.514,1.514,1.514,0,0,0,0,0,0,0,1.5289,1.5287,1.5268,1.5254,1.525,1.5235,1.5231,1.5234,1.5197,1.5206,1.5202,1.5198,1.5166,1.5162,1.516,1.5167,1.514,1.514,1.514,1.514,1.5199,1.5201,0,0,0,0,0,0,1.5296,1.5288,1.527,1.5267,1.5264,1.5236,1.5231,1.5229,1.5197,1.5191,1.5199,1.5195,1.5163,1.516,1.5158,1.5193,1.514,1.514,1.514,1.5197,1.5199,1.5201,0,0,0,0,0,0,1.5296,1.5295,1.5271,1.5277,1.5272,1.5238,1.5236,1.5229,1.5225,1.5192,1.5185,1.5202,1.5161,1.5159,1.5169,1.5191,1.514,1.5139,1.5195,1.5198,1.52,1.5262,0,0,0,0,0,0,1.5297,1.5295,1.5306,1.5277,1.5272,1.5282,1.5237,1.523,1.5225,1.522,1.5193,1.5187,1.516,1.5169,1.5169,1.519,1.5139,1.5193,1.5196,1.5199,1.5258,1.5267,1.5274,0,0,0,0,0,1.5298,1.5325,1.5307,1.5305,1.5285,1.5284,1.5281,1.525,1.5227,1.5238,1.5217,1.5188,1.5188,1.5171,1.5169,1.5191,1.5192,1.5196,1.5199,1.5255,1.5265,1.5274,0,0,0,0,0,0,1.5356,1.532,1.53,1.5318,1.5305,1.5274,1.5287,1.5261,1.5254,1.5249,1.521,1.5205,1.522,1.5206,1.5187,1.5219,1.5186,1.5189,1.5228,1.5238,1.5246,1.5249,1.5139,0,0,0,0,0,1.5371,1.5373,1.5341,1.536,1.5354,1.5322,1.532,1.5297,1.5282,1.5275,1.5255,1.5241,1.5238,1.5237,1.5232,1.5256,1.525,1.527,1.5278,1.5284,1.5288,1.5302,1.5311,1.5214,1.5214,1.5213,0,0,1.5402,1.5382,1.5386,1.5371,1.5358,1.5361,1.5317,1.5322,1.5324,1.5276,1.5285,1.5269,1.5251,1.5269,1.5275,1.5258,1.5314,1.5289,1.5295,1.5295,1.5306,1.5316,1.5324,1.5216,1.5216,1.5215,0,0,1.546,1.5445,1.5459,1.5447,1.5429,1.5407,1.5411,1.5384,1.5373,1.5381,1.5346,1.5347,1.5343,1.5332,1.5326,1.5381,1.5355,1.5381,1.5422,1.5436,1.5444,1.545,1.5472,1.548,1.5385,1.5385,1.5385,0,1.55,1.5503,1.547,1.5477,1.5473,1.543,1.5445,1.5435,1.5416,1.5414,1.5394,1.5389,1.5373,1.5389,1.5403,1.5398,1.5402,1.5384,1.5445,1.5451,1.5457,1.5477,1.5485,1.5388,1.5388,1.5388,1.5387,0,1.5555,1.5558,1.5572,1.5556,1.5552,1.5563,1.5532,1.5533,1.5511,1.5492,1.5502,1.5482,1.5473,1.5475,1.5453,1.5488,1.5478,1.5452,1.5418,1.547,1.5489,1.5496,1.5393,1.5392,1.5391,1.539,0,0,1.5648,1.5614,1.562,1.5613,1.5589,1.5591,1.5601,1.5593,1.5595,1.5583,1.5591,1.5589,1.5566,1.5559,1.5536,1.5548,1.5595,1.5521,1.552,1.5537,1.5635,1.5655,1.5665,1.5577,1.5578,1.5579,1.5637,0,1.5702,1.5718,1.5688,1.5711,1.5714,1.5674,1.5683,1.567,1.5653,1.5653,1.5633,1.5633,1.5602,1.5598,1.5607,1.5588,1.5615,1.5583,1.5585,1.5586,1.5593,1.5674,1.5695,1.575,1.5644,1.5645,1.5646,0,1.5768,1.5761,1.5784,1.5761,1.5761,1.5769,1.5761,1.5761,1.5746,1.5733,1.5726,1.5699,1.5708,1.5674,1.5686,1.5665,1.5665,1.5655,1.5657,1.5657,1.562,1.5678,1.5767,1.5776,1.5656,1.5655,1.5655,0,1.5836,1.5831,1.5845,1.584,1.5813,1.582,1.5809,1.5792,1.579,1.5783,1.5781,1.5775,1.5772,1.5768,1.574,1.5718,1.5756,1.572,1.5747,1.5748,1.5757,1.5757,1.5849,1.5755,1.5754,1.5754,1.5754,0,1.59,1.5916,1.5876,1.5884,1.5902,1.5868,1.5886,1.5871,1.5857,1.5862,1.5827,1.5833,1.5795,1.5797,1.5775,1.579,1.5788,1.5778,1.5773,1.5782,1.5784,1.5782,1.5778,1.5756,1.5756,1.5755,1.5755,0,1.5979,1.5952,1.5965,1.5939,1.5933,1.5947,1.5925,1.5932,1.5913,1.592,1.592,1.589,1.5891,1.5862,1.5857,1.5842,1.5867,1.5854,1.5873,1.5869,1.5898,1.5897,1.5994,1.6006,1.5902,1.5903,1.5904,0,1.6023,1.6034,1.601,1.6012,1.6003,1.6005,1.6003,1.5971,1.597,1.5955,1.5964,1.5962,1.5959,1.5963,1.594,1.5937,1.5924,1.5958,1.5923,1.5933,1.5927,1.5927,1.5929,1.5966,1.5967,1.5968,1.5969,0,1.6104,1.609,1.6089,1.6084,1.6083,1.6077,1.6069,1.6072,1.6036,1.6038,1.6039,1.6036,1.6032,1.6031,1.6023,1.6012,1.5986,1.598,1.5987,1.5998,1.6009,1.6005,1.5895,1.5978,1.5978,1.5977,1.5976,1.5976,1.6167,1.6177,1.6162,1.6162,1.6153,1.6146,1.6152,1.6134,1.6135,1.6129,1.6109,1.6114,1.61,1.6087,1.6079,1.6082,1.6066,1.6074,1.6077,1.608,1.6086,1.6007,1.6081,1.608,1.608,1.608,1.608,0,1.6248,1.6237,1.6237,1.6228,1.6228,1.6203,1.6193,1.6196,1.62,1.6189,1.6187,1.6189,1.6189,1.6167,1.6164,1.6171,1.6159,1.6172,1.6172,1.617,1.6101,1.6096,1.6182,1.6182,1.6182,1.6182,1.6182,1.6182,1.6291,1.6306,1.6291,1.6301,1.6289,1.6294,1.6291,1.6285,1.6277,1.6281,1.628,1.6266,1.6252,1.6247,1.6246,1.624,1.6241,1.6259,1.6248,1.6184,1.6174,1.6165,1.6161,1.6259,1.6259,1.6317,1.6318,1.6318]}]]